| time (UTC) | temp F | wind direction | speed MPH | gust MPH | rain 1hr in | rain 24hr in | rain mn in | humidity % | barometer mb |
| 20260503183020 | 85 | 203 | 4.0 | 10.0 | 0.00 | 0.00 | 0.00 | 19 | 1011.2 |
| 20260503182518 | 85 | 289 | 5.0 | 9.0 | 0.00 | 0.00 | 0.00 | 19 | 1011.4 |
| 20260503182015 | 85 | 237 | 3.0 | 14.0 | 0.00 | 0.00 | 0.00 | 19 | 1011.4 |
| 20260503181512 | 84 | 262 | 3.0 | 9.0 | 0.00 | 0.00 | 0.00 | 19 | 1011.4 |
| 20260503181008 | 85 | 274 | 0.0 | 6.0 | 0.00 | 0.00 | 0.00 | 19 | 1011.6 |
| 20260503180506 | 84 | 282 | 3.0 | 6.0 | 0.00 | 0.00 | 0.00 | 19 | 1011.7 |
| 20260503180003 | 84 | 207 | 3.0 | 6.0 | 0.00 | 0.00 | 0.00 | 19 | 1011.6 |
| 20260503175501 | 84 | 188 | 6.0 | 13.0 | 0.00 | 0.00 | 0.00 | 20 | 1012.2 |
| 20260503174957 | 84 | 307 | 4.0 | 7.0 | 0.00 | 0.00 | 0.00 | 19 | 1012.3 |
| 20260503174455 | 84 | 282 | 7.0 | 9.0 | 0.00 | 0.00 | 0.00 | 19 | 1012.4 |
| 20260503173950 | 84 | 216 | 3.0 | 11.0 | 0.00 | 0.00 | 0.00 | 20 | 1012.3 |
| 20260503173446 | 83 | 204 | 3.0 | 6.0 | 0.00 | 0.00 | 0.00 | 19 | 1012.5 |
| 20260503172943 | 83 | 147 | 4.0 | 9.0 | 0.00 | 0.00 | 0.00 | 19 | 1012.3 |
| 20260503172440 | 83 | 138 | 3.0 | 8.0 | 0.00 | 0.00 | 0.00 | 19 | 1012.4 |
| 20260503171937 | 82 | 227 | 3.0 | 11.0 | 0.00 | 0.00 | 0.00 | 20 | 1012.5 |
| 20260503171433 | 82 | 238 | 4.0 | 8.0 | 0.00 | 0.00 | 0.00 | 20 | 1012.8 |
| 20260503170931 | 82 | 260 | 7.0 | 10.0 | 0.00 | 0.00 | 0.00 | 18 | 1012.8 |
| 20260503170427 | 82 | 219 | 5.0 | 10.0 | 0.00 | 0.00 | 0.00 | 19 | 1012.7 |
| 20260503150819 | 74 | 306 | 5.0 | 8.0 | 0.00 | 0.00 | 0.00 | 32 | 1013.8 |
| 20260503150315 | 74 | 249 | 5.0 | 9.0 | 0.00 | 0.00 | 0.00 | 32 | 1013.7 |
| 20260503140240 | 64 | 251 | 4.0 | 6.0 | 0.00 | 0.00 | 0.00 | 48 | 1014.1 |
| 20260503131209 | 55 | 192 | 1.0 | 2.0 | 0.00 | 0.00 | 0.00 | 65 | 1014.6 |
| 20260503130707 | 54 | 224 | 0.0 | 1.0 | 0.00 | 0.00 | 0.00 | 66 | 1014.5 |
| 20260503130204 | 54 | 231 | 0.0 | 1.0 | 0.00 | 0.00 | 0.00 | 66 | 1014.6 |
| 20260503120130 | 49 | 193 | 0.0 | 0.0 | 0.00 | 0.00 | 0.00 | 75 | 1014.3 |
| 20260503110557 | 50 | 213 | 0.0 | 0.0 | 0.00 | 0.00 | 0.00 | 72 | 1014.3 |
| 20260503090444 | 53 | 239 | 4.0 | 6.0 | 0.00 | 0.00 | 0.00 | 67 | 1014.9 |
| 20260503081410 | 52 | 221 | 0.0 | 0.0 | 0.00 | 0.00 | 0.00 | 68 | 1015.4 |
| 20260503080908 | 52 | 189 | 0.0 | 1.0 | 0.00 | 0.00 | 0.00 | 68 | 1015.6 |
| 20260503080404 | 52 | 189 | 0.0 | 0.0 | 0.00 | 0.00 | 0.00 | 67 | 1015.4 |
| 20260503072840 | 53 | 171 | 0.0 | 1.0 | 0.00 | 0.00 | 0.00 | 63 | 1016.0 |
| 20260503072338 | 53 | 248 | 0.0 | 1.0 | 0.00 | 0.00 | 0.00 | 62 | 1015.8 |
| 20260503071834 | 53 | 206 | 0.0 | 2.0 | 0.00 | 0.00 | 0.00 | 62 | 1015.9 |
| 20260503071331 | 53 | 223 | 0.0 | 3.0 | 0.00 | 0.00 | 0.00 | 61 | 1015.9 |
| 20260503070827 | 53 | 221 | 0.0 | 1.0 | 0.00 | 0.00 | 0.00 | 61 | 1016.0 |
| 20260503070326 | 53 | 156 | 0.0 | 0.0 | 0.00 | 0.00 | 0.00 | 61 | 1015.9 |
| 20260503060250 | 54 | 89 | 0.0 | 10.0 | 0.00 | 0.00 | 0.00 | 59 | 1016.4 |
| 20260503054737 | 54 | 210 | 1.0 | 2.0 | 0.00 | 0.00 | 0.00 | 58 | 1016.5 |
| 20260503054234 | 54 | 178 | 0.0 | 2.0 | 0.00 | 0.00 | 0.00 | 58 | 1016.6 |
| 20260503053732 | 54 | 158 | 0.0 | 2.0 | 0.00 | 0.00 | 0.00 | 58 | 1016.6 |
| 20260503053231 | 54 | 185 | 2.0 | 5.0 | 0.00 | 0.00 | 0.00 | 58 | 1016.5 |
| 20260503052727 | 54 | 205 | 0.0 | 2.0 | 0.00 | 0.00 | 0.00 | 59 | 1016.7 |
| 20260503052223 | 54 | 158 | 0.0 | 0.0 | 0.00 | 0.00 | 0.00 | 58 | 1016.4 |
| 20260503051718 | 54 | 177 | 1.0 | 3.0 | 0.00 | 0.00 | 0.00 | 58 | 1016.4 |
| 20260503051217 | 54 | 164 | 1.0 | 2.0 | 0.00 | 0.00 | 0.00 | 57 | 1016.8 |
| 20260503050713 | 54 | 184 | 0.0 | 1.0 | 0.00 | 0.00 | 0.00 | 57 | 1016.8 |
| 20260503050209 | 55 | 197 | 0.0 | 0.0 | 0.00 | 0.00 | 0.00 | 56 | 1016.9 |
| 20260503045707 | 55 | 168 | 0.0 | 0.0 | 0.00 | 0.00 | 0.00 | 56 | 1016.6 |
| 20260503045205 | 55 | 175 | 2.0 | 3.0 | 0.00 | 0.00 | 0.00 | 55 | 1016.5 |
| 20260503044701 | 56 | 163 | 0.0 | 0.0 | 0.00 | 0.00 | 0.00 | 54 | 1016.8 |
| 20260503044158 | 56 | 165 | 0.0 | 5.0 | 0.00 | 0.00 | 0.00 | 53 | 1016.6 |
| 20260503043655 | 56 | 141 | 0.0 | 1.0 | 0.00 | 0.00 | 0.00 | 53 | 1016.5 |
| 20260503043152 | 56 | 217 | 0.0 | 1.0 | 0.00 | 0.00 | 0.00 | 53 | 1016.9 |
| 20260503042648 | 56 | 139 | 0.0 | 0.0 | 0.00 | 0.00 | 0.00 | 53 | 1016.8 |
| 20260503042145 | 56 | 150 | 1.0 | 2.0 | 0.00 | 0.00 | 0.00 | 53 | 1016.9 |
| 20260503041641 | 56 | 147 | 3.0 | 3.0 | 0.00 | 0.00 | 0.00 | 52 | 1016.9 |
| 20260503041139 | 56 | 148 | 0.0 | 2.0 | 0.00 | 0.00 | 0.00 | 53 | 1016.9 |
| 20260503040636 | 56 | 158 | 0.0 | 0.0 | 0.00 | 0.00 | 0.00 | 52 | 1017.1 |
| 20260503040134 | 57 | 155 | 1.0 | 2.0 | 0.00 | 0.00 | 0.00 | 52 | 1017.1 |
| 20260503035630 | 57 | 154 | 0.0 | 2.0 | 0.00 | 0.00 | 0.00 | 52 | 1017.1 |
| 20260503035128 | 57 | 154 | 0.0 | 1.0 | 0.00 | 0.00 | 0.00 | 52 | 1017.1 |
| 20260503034625 | 57 | 144 | 0.0 | 1.0 | 0.00 | 0.00 | 0.00 | 52 | 1017.2 |
| 20260503034122 | 57 | 155 | 0.0 | 2.0 | 0.00 | 0.00 | 0.00 | 52 | 1017.1 |
| 20260503033619 | 57 | 167 | 0.0 | 0.0 | 0.00 | 0.00 | 0.00 | 52 | 1017.2 |
| 20260503033117 | 57 | 175 | 0.0 | 0.0 | 0.00 | 0.00 | 0.00 | 52 | 1017.2 |
| 20260503032615 | 57 | 154 | 0.0 | 0.0 | 0.00 | 0.00 | 0.00 | 51 | 1017.1 |
| 20260503032113 | 57 | 154 | 0.0 | 1.0 | 0.00 | 0.00 | 0.00 | 51 | 1017.3 |
| 20260503031610 | 57 | 124 | 1.0 | 2.0 | 0.00 | 0.00 | 0.00 | 51 | 1017.3 |
| 20260503031108 | 56 | 160 | 0.0 | 0.0 | 0.00 | 0.00 | 0.00 | 52 | 1017.3 |
| 20260503030604 | 56 | 154 | 0.0 | 0.0 | 0.00 | 0.00 | 0.00 | 52 | 1017.3 |
| 20260503030100 | 56 | 155 | 0.0 | 0.0 | 0.00 | 0.00 | 0.00 | 53 | 1017.1 |
| 20260503025557 | 55 | 156 | 0.0 | 0.0 | 0.00 | 0.00 | 0.00 | 54 | 1017.2 |
| 20260503025055 | 55 | 157 | 0.0 | 1.0 | 0.00 | 0.00 | 0.00 | 56 | 1017.1 |
| 20260503024551 | 55 | 157 | 0.0 | 0.0 | 0.00 | 0.00 | 0.00 | 55 | 1017.1 |
| 20260503024048 | 55 | 157 | 0.0 | 0.0 | 0.00 | 0.00 | 0.00 | 55 | 1017.1 |
| 20260503023545 | 55 | 157 | 0.0 | 0.0 | 0.00 | 0.00 | 0.00 | 54 | 1016.8 |
| 20260503023042 | 56 | 157 | 0.0 | 0.0 | 0.00 | 0.00 | 0.00 | 54 | 1016.9 |
| 20260503022538 | 56 | 157 | 0.0 | 0.0 | 0.00 | 0.00 | 0.00 | 53 | 1016.6 |
| 20260503022033 | 57 | 157 | 0.0 | 0.0 | 0.00 | 0.00 | 0.00 | 52 | 1016.8 |
| 20260503021530 | 56 | 157 | 0.0 | 0.0 | 0.00 | 0.00 | 0.00 | 53 | 1016.7 |
| 20260503021027 | 55 | 158 | 0.0 | 1.0 | 0.00 | 0.00 | 0.00 | 55 | 1016.9 |
| 20260503020524 | 56 | 158 | 0.0 | 0.0 | 0.00 | 0.00 | 0.00 | 53 | 1016.5 |
| 20260503020021 | 57 | 158 | 0.0 | 0.0 | 0.00 | 0.00 | 0.00 | 51 | 1016.7 |
| 20260503015518 | 58 | 158 | 0.0 | 0.0 | 0.00 | 0.00 | 0.00 | 51 | 1016.5 |
| 20260503015015 | 59 | 158 | 0.0 | 0.0 | 0.00 | 0.00 | 0.00 | 49 | 1016.4 |
| 20260503014511 | 60 | 158 | 0.0 | 0.0 | 0.00 | 0.00 | 0.00 | 46 | 1016.4 |
| 20260503014009 | 61 | 158 | 0.0 | 0.0 | 0.00 | 0.00 | 0.00 | 45 | 1016.5 |
| 20260503013506 | 62 | 158 | 0.0 | 0.0 | 0.00 | 0.00 | 0.00 | 44 | 1016.6 |
| 20260503013004 | 63 | 158 | 0.0 | 0.0 | 0.00 | 0.00 | 0.00 | 41 | 1016.5 |
| 20260503012501 | 64 | 158 | 0.0 | 1.0 | 0.00 | 0.00 | 0.00 | 40 | 1016.6 |
| 20260503011956 | 64 | 158 | 0.0 | 0.0 | 0.00 | 0.00 | 0.00 | 39 | 1016.4 |
| 20260503011454 | 65 | 159 | 0.0 | 0.0 | 0.00 | 0.00 | 0.00 | 37 | 1016.5 |
| 20260503010951 | 66 | 160 | 0.0 | 0.0 | 0.00 | 0.00 | 0.00 | 35 | 1016.5 |
| 20260503010447 | 67 | 160 | 1.0 | 1.0 | 0.00 | 0.00 | 0.00 | 34 | 1016.8 |
| 20260503005945 | 67 | 161 | 0.0 | 0.0 | 0.00 | 0.00 | 0.00 | 33 | 1016.6 |
| 20260503005442 | 68 | 162 | 0.0 | 0.0 | 0.00 | 0.00 | 0.00 | 32 | 1016.6 |
| 20260503004939 | 68 | 163 | 0.0 | 0.0 | 0.00 | 0.00 | 0.00 | 30 | 1016.6 |
| 20260503004435 | 69 | 165 | 0.0 | 0.0 | 0.00 | 0.00 | 0.00 | 30 | 1016.6 |
| 20260503003933 | 70 | 163 | 0.0 | 0.0 | 0.00 | 0.00 | 0.00 | 30 | 1016.5 |
| 20260503003430 | 71 | 164 | 0.0 | 0.0 | 0.00 | 0.00 | 0.00 | 29 | 1016.7 |
| 20260503002927 | 71 | 164 | 0.0 | 0.0 | 0.00 | 0.00 | 0.00 | 29 | 1016.7 |
| 20260503002424 | 72 | 167 | 0.0 | 0.0 | 0.00 | 0.00 | 0.00 | 28 | 1016.7 |
| 20260503001920 | 72 | 191 | 0.0 | 0.0 | 0.00 | 0.00 | 0.00 | 27 | 1016.8 |
| 20260503001417 | 72 | 236 | 0.0 | 2.0 | 0.00 | 0.00 | 0.00 | 27 | 1016.6 |
| 20260503000915 | 72 | 166 | 0.0 | 0.0 | 0.00 | 0.00 | 0.00 | 27 | 1016.9 |
| 20260503000411 | 73 | 175 | 0.0 | 0.0 | 0.00 | 0.00 | 0.00 | 27 | 1017.3 |
| 20260502235909 | 71 | 142 | 0.0 | 0.0 | 0.00 | 0.00 | 0.00 | 28 | 1017.1 |
| 20260502235405 | 72 | 173 | 0.0 | 0.0 | 0.00 | 0.00 | 0.00 | 27 | 1017.1 |
| 20260502234903 | 73 | 184 | 0.0 | 0.0 | 0.00 | 0.00 | 0.00 | 27 | 1017.4 |
| 20260502234359 | 73 | 204 | 0.0 | 0.0 | 0.00 | 0.00 | 0.00 | 27 | 1017.2 |
| 20260502233856 | 73 | 181 | 0.0 | 0.0 | 0.00 | 0.00 | 0.00 | 27 | 1017.2 |
| 20260502233352 | 73 | 175 | 0.0 | 0.0 | 0.00 | 0.00 | 0.00 | 27 | 1017.4 |
| 20260502232849 | 73 | 181 | 0.0 | 0.0 | 0.00 | 0.00 | 0.00 | 26 | 1017.6 |
| 20260502232345 | 73 | 228 | 0.0 | 2.0 | 0.00 | 0.00 | 0.00 | 27 | 1017.4 |
| 20260502231842 | 73 | 192 | 0.0 | 0.0 | 0.00 | 0.00 | 0.00 | 26 | 1017.5 |
| 20260502231340 | 73 | 239 | 0.0 | 0.0 | 0.00 | 0.00 | 0.00 | 27 | 1017.7 |
| 20260502230838 | 73 | 189 | 0.0 | 0.0 | 0.00 | 0.00 | 0.00 | 27 | 1017.5 |
| 20260502230336 | 73 | 219 | 0.0 | 0.0 | 0.00 | 0.00 | 0.00 | 26 | 1017.5 |
| 20260502225832 | 73 | 182 | 0.0 | 0.0 | 0.00 | 0.00 | 0.00 | 26 | 1017.6 |
| 20260502225329 | 73 | 182 | 0.0 | 2.0 | 0.00 | 0.00 | 0.00 | 26 | 1017.5 |
| 20260502224826 | 73 | 278 | 0.0 | 0.0 | 0.00 | 0.00 | 0.00 | 26 | 1017.5 |
| 20260502224322 | 73 | 285 | 1.0 | 5.0 | 0.00 | 0.00 | 0.00 | 26 | 1017.7 |
| 20260502223820 | 73 | 289 | 2.0 | 5.0 | 0.00 | 0.00 | 0.00 | 26 | 1017.6 |
| 20260502223318 | 74 | 273 | 0.0 | 1.0 | 0.00 | 0.00 | 0.00 | 26 | 1017.6 |
| 20260502222815 | 72 | 230 | 0.0 | 0.0 | 0.00 | 0.00 | 0.00 | 27 | 1017.6 |
| 20260502222312 | 73 | 165 | 0.0 | 0.0 | 0.00 | 0.00 | 0.00 | 26 | 1017.7 |
| 20260502221808 | 73 | 226 | 0.0 | 2.0 | 0.00 | 0.00 | 0.00 | 27 | 1017.9 |
| 20260502221304 | 72 | 200 | 0.0 | 0.0 | 0.00 | 0.00 | 0.00 | 28 | 1018.1 |
| 20260502220801 | 73 | 335 | 0.0 | 0.0 | 0.00 | 0.00 | 0.00 | 27 | 1018.2 |
| 20260502220257 | 73 | 178 | 0.0 | 2.0 | 0.00 | 0.00 | 0.00 | 26 | 1018.1 |
| 20260502215754 | 72 | 175 | 0.0 | 0.0 | 0.00 | 0.00 | 0.00 | 27 | 1018.0 |
| 20260502215251 | 72 | 200 | 0.0 | 0.0 | 0.00 | 0.00 | 0.00 | 27 | 1018.2 |
| 20260502214748 | 73 | 269 | 0.0 | 0.0 | 0.00 | 0.00 | 0.00 | 27 | 1018.2 |
| 20260502214245 | 73 | 150 | 0.0 | 0.0 | 0.00 | 0.00 | 0.00 | 27 | 1018.3 |
| 20260502213742 | 72 | 224 | 0.0 | 0.0 | 0.00 | 0.00 | 0.00 | 28 | 1018.5 |
| 20260502213239 | 71 | 197 | 0.0 | 3.0 | 0.00 | 0.00 | 0.00 | 27 | 1018.6 |
| 20260502212738 | 72 | 178 | 1.0 | 3.0 | 0.00 | 0.00 | 0.00 | 27 | 1018.7 |
| 20260502212236 | 71 | 124 | 0.0 | 2.0 | 0.00 | 0.00 | 0.00 | 28 | 1018.9 |
| 20260502211732 | 70 | 274 | 0.0 | 2.0 | 0.00 | 0.00 | 0.00 | 29 | 1018.9 |
| 20260502211229 | 70 | 248 | 0.0 | 6.0 | 0.00 | 0.00 | 0.00 | 27 | 1018.7 |
| 20260502210726 | 72 | 173 | 1.0 | 2.0 | 0.00 | 0.00 | 0.00 | 27 | 1018.9 |
| 20260502210223 | 72 | 200 | 4.0 | 5.0 | 0.00 | 0.00 | 0.00 | 27 | 1019.2 |
| 20260502205720 | 71 | 162 | 1.0 | 5.0 | 0.00 | 0.00 | 0.00 | 28 | 1019.2 |
| 20260502205216 | 71 | 249 | 3.0 | 6.0 | 0.00 | 0.00 | 0.00 | 28 | 1019.0 |
| 20260502204714 | 69 | 135 | 0.0 | 3.0 | 0.00 | 0.00 | 0.00 | 28 | 1019.3 |
| 20260502204211 | 71 | 89 | 1.0 | 3.0 | 0.00 | 0.00 | 0.00 | 27 | 1019.5 |
| 20260502203709 | 70 | 198 | 0.0 | 0.0 | 0.00 | 0.00 | 0.00 | 28 | 1019.4 |
| 20260502203207 | 70 | 289 | 0.0 | 0.0 | 0.00 | 0.00 | 0.00 | 28 | 1019.7 |
| 20260502202700 | 70 | 267 | 0.0 | 0.0 | 0.00 | 0.00 | 0.00 | 29 | 1019.8 |
| 20260502202159 | 68 | 109 | 0.0 | 3.0 | 0.00 | 0.00 | 0.00 | 30 | 1019.7 |
| 20260502201656 | 70 | 94 | 1.0 | 5.0 | 0.00 | 0.00 | 0.00 | 30 | 1019.9 |
| 20260502201152 | 70 | 193 | 1.0 | 5.0 | 0.00 | 0.00 | 0.00 | 30 | 1019.9 |
| 20260502200648 | 69 | 73 | 1.0 | 1.0 | 0.00 | 0.00 | 0.00 | 29 | 1019.7 |
| 20260502200145 | 69 | 184 | 0.0 | 0.0 | 0.00 | 0.00 | 0.00 | 31 | 1020.0 |
| 20260502195643 | 68 | 232 | 1.0 | 3.0 | 0.00 | 0.00 | 0.00 | 31 | 1019.9 |
| 20260502195139 | 68 | 273 | 0.0 | 2.0 | 0.00 | 0.00 | 0.00 | 29 | 1020.0 |
| 20260502194636 | 69 | 291 | 2.0 | 6.0 | 0.00 | 0.00 | 0.00 | 30 | 1019.9 |
| 20260502194133 | 70 | 300 | 0.0 | 0.0 | 0.00 | 0.00 | 0.00 | 30 | 1019.9 |
| 20260502193629 | 69 | 255 | 0.0 | 0.0 | 0.00 | 0.00 | 0.00 | 30 | 1020.0 |
| 20260502193126 | 68 | 286 | 0.0 | 1.0 | 0.00 | 0.00 | 0.00 | 30 | 1020.2 |
| 20260502192621 | 68 | 224 | 0.0 | 0.0 | 0.00 | 0.00 | 0.00 | 33 | 1020.3 |
| 20260502192120 | 66 | 253 | 0.0 | 0.0 | 0.00 | 0.00 | 0.00 | 32 | 1020.6 |
| 20260502191616 | 66 | 299 | 0.0 | 5.0 | 0.00 | 0.00 | 0.00 | 32 | 1020.4 |
| 20260502191114 | 66 | 315 | 3.0 | 6.0 | 0.00 | 0.00 | 0.00 | 32 | 1020.7 |
| 20260502190611 | 67 | 208 | 0.0 | 0.0 | 0.00 | 0.00 | 0.00 | 33 | 1020.6 |
| 20260502190109 | 67 | 168 | 0.0 | 0.0 | 0.00 | 0.00 | 0.00 | 31 | 1020.7 |
| 20260502185603 | 66 | 225 | 2.0 | 3.0 | 0.00 | 0.00 | 0.00 | 33 | 1020.8 |
| 20260502185100 | 66 | 172 | 3.0 | 5.0 | 0.00 | 0.00 | 0.00 | 33 | 1020.8 |
| 20260502184556 | 65 | 80 | 0.0 | 0.0 | 0.00 | 0.00 | 0.00 | 34 | 1020.8 |
| 20260502184051 | 65 | 66 | 2.0 | 6.0 | 0.00 | 0.00 | 0.00 | 35 | 1021.0 |
| 20260502183548 | 65 | 158 | 1.0 | 6.0 | 0.00 | 0.00 | 0.00 | 34 | 1021.1 |
| 20260502183044 | 65 | 155 | 1.0 | 3.0 | 0.00 | 0.00 | 0.00 | 35 | 1021.1 |